Погода в Ланкаране

Погода в Ланкаране : погода сейчас, прогноз погоды и архив. Всё, что Вы хотите узнать о погоде в Ланкаране!

Поиск расширенной информации на нашем сайте:

Полезная информация: Brady хочет познакомиться - brady tls2200.

Другие новости

Новости СМИ2

Главная страница сайта

Новости сайта

02.10.2013

Напоминаем, что на нашем новом сайте вы можете получить высокодетализированные прогнозы погоды по пунктам России, СНГ и мира (включающие важные для авиации метеовеличины, такие как направление и скорость ветра, видимость, явления погоды, количество и форма облачности, нижняя и верхняя граница облачности), а также ознакомиться с разнообразными материалами по авиационной метеорологии и подборкой полезных ссылок на эту тему.

Сайт Метеоцентр.Азия посвящён разработке технологий оптимизации авиаметеорологического обслуживания, включая проектирование и перспективное создание нескольких автоматизированных авиаметеорологических систем:
- система выпуска высокодетальных прогностических карт явлений погоды для нижнего воздушного пространства по России и ближнему зарубежью;
- система верификации прогнозов TAF (выпускаемых синоптиками официальных АМСГ РФ и ближнего зарубежья) и AUTOTAF (выпускаемых сайтом Метеоцентр.Азия) - выявление ошибок, онлайн-сопоставление с фактической погодой METAR, автоматическое внесение коррективов в прогнозы при резком отклонении фактической погоды от прогноза, подсчёт оправдываемости прогнозов по элементам и в целом;
- система обработки, анализа и отображения авиаметеорологической информации для применения провайдерами метеорологической информации.

Рекомендуем: готовые проекты бань, проекты деревянных бань

Погода в Ланкаране - сегодня

Время (UTC), дата Ветер
(°,м/с) 
Видим.   Явления Облачность Т
(°С)
Тd
(°С)
f(%) Тe
(°С)
Pmin
(гПа)
dP
(гПа)
Po
(мм)
O2
(г/м3)
Тmin Tmax R s Состояние
почвы
00 24.03.17 090 (В) 4000 м  дождь  10/10 300 м 
[Frnb|Ns]
+8 +7.1 94 +9  1023.9  0.1  769  300           
03 24.03.17 110 (В) 4000 м  дождь  10/10 300 м 
[Frnb|Ns]
+7.7 +6.8 94 +9  1025.3  1.4  770  301         
06 24.03.17 050 (СВ) 4000 м  слаб. дождь  10/10 300 м 
[Frnb|Ns]
+7.9 +9.3 100 +9  1026.9  1.6  771  300        лёд 
09 24.03.17 070 (В) 4000 м  слаб. дождь  10/10 300 м 
[Frnb|Ns]
+8.3 +7 92 +9  1027.1  0.2  771  301           
12 24.03.17 090 (В) 4000 м  слаб. дождь  10/10 300 м 
[Frnb|Ns]
+8.4 +6.7 89 +9  1026.9  -0.2  771  300           
15 24.03.17 110 (В) 4000 м    10/10 600 м 
[Sc]
+8.1 +6.4 89 +9  1027.5  0.6  772  301         
18 24.03.17 110 (В) 4000 м    10/10 600 м 
[Sc]
+8.2 +6.4 88 +9  1028.1  0.6  772  301           
21 24.03.17 140 (ЮВ) 4000 м    8/8 600 м 
[Sc]
+8.2 +7 92 +9  1026.7  -0.4  771  301           
00 25.03.17 160 (Ю) 4000 м    10/10 600 м 
[Sc]
+8 +7.4 96 +9  1025.2  -1.5  770  300           
03 25.03.17 200 (Ю) 20000 м    ясно 
+5.3 +4.4 94 +6  1024.9  -0.3  770  304           
06 25.03.17 140 (ЮВ) 20000 м    3/0 средняя 
[Ac lent]
+11.2 +7.3 77 +12  1024.1  -0.8  769  297        лёд 
09 25.03.17 140 (ЮВ) 20000 м    ясно 
+12.4 +8 74 +13  1023.4  -0.7  769  295           
12 25.03.17 тихо ()   20000 м    3/0 средняя 
[Ac lent]
+12.4 +6.5 67 +12  1019.5  -3.9  766  294           
15 25.03.17 180 (Ю) 20000 м    ясно 
+9.9 +7.4 84 +11  1018.3  -1.2  765  296           
18 25.03.17 140 (ЮВ) 4000 м    ясно 
+8.9 +7.3 90 +9  1018.1  -0.2  765  297           
21 25.03.17 160 (Ю) 4000 м    ясно 
+8 +7.1 94 +9  1017.4  -0.7  764  298           
00 26.03.17 200 (Ю) 4000 м    ясно 
+5.1 +3.7 91 +6  1016.8  -0.6  764  302           
03 26.03.17 200 (Ю) 4000 м    10/10 600 м 
[Sc]
+2.8 +2.5 98 +4  1018  1.2  765  305           
06 26.03.17 тихо ()   20000 м    3/0 
+11.4 +7.4 76 +11  1018.3  0.3  765  295        лёд 
09 26.03.17 090 (В) 20000 м    ясно 
+12.5 +7.8 73 +14  1016.9  -1.4  764  293           
12 26.03.17 140 (ЮВ) 20000 м    ясно 
+12.8 +7.7 71 +14  1015.1  -1.8  762  292           
15 26.03.17 200 (Ю) 20000 м    4/4 600 м 
[Cu hum]
+10.1 +8 87 +11  1014.8  -0.3  762  295           
18 26.03.17 180 (Ю) 4000 м    ясно 
+9.3 +7.8 90 +10  1014.9  0.1  762  296           
21 26.03.17 200 (Ю) 4000 м    ясно 
+7.1 +6.7 97 +8  1013.9  -1  762  298           
00 27.03.17 180 (Ю) 4000 м    ясно 
+4.5 +4 97 +5  1013.1  -0.8  761  301           
Время (UTC), дата Ветер
(°,м/с) 
Видим.   Явления Облачность Т
(°С)
Тd
(°С)
f(%) Тe
(°С)
Pmin
(гПа)
dP
(гПа)
Po
(мм)
O2
(г/м3)
Тmin Tmax R s Состояние
почвы

Для получения пояснительной информации подведите курсор к названию столбца.

ПОГОДА в Ланкаране - архив

Всё, что Вы хотите узнать о погоде в Ланкаране - удобно и подробно!

Выберите нужную дату (начиная с 1 января 2015* года) и нажмите кнопку "Найти".
Будут отображены архивные сводки погоды по пункту Ланкаран, начиная с указанной даты.


Отображать данные в формате CSV (для использования в таблицах Excel)


Внимание! Наш архив погоды предназначен исключительно для личного некоммерческого использования в познавательных целях. Если Вам необходимы официальные справки о состоянии погоды (для производственных, юридических, коммерческих и т.п. целей), обращайтесь в органы Росгидромета.

*Примечание: данная дата относится к архиву по метеостанциям СССР (Россия, СНГ, Балтия).
Архив по метеостанциям Зарубежной Европы и Азии (кроме Китая) хранится 10 дней, по другим регионам земного шара (Китай, Африка, Америка, Австралия, Океания) - 1 день.

Ланкаран - район местоположения метеостанции


Название, широта, долгота, высота метеостанции:
Ланкаран (аэропорт) 38.7°ш. 48.8°д. -12 м над ур. моря [Азербайджан]

Дополнительная информация

В oтличие oт бoльшинства пoгoдных сайтoв мы публикуем пoдрoбную метеoинфoрмацию в детальнoм прoфессиoнальнoм фoрмате.

Характеристики температуры и влажнoсти вoздуха измеряются на высoте 2 м в тени вдали oт зданий и деревьев.
Скoрoсть ветра измеряется на высoте 10 м (на урoвне рoста челoвека скoрoсть ветра ниже в 1.5-2 раза). Если метеoстанция нахoдится в гoрoде или в лесу, тo скoрoсть ветра занижена на 2-4 м/с пo сравнению с oткрытым местoм. Скoрoсть ветра над акватoриями крупных рек и oзёр, а также на вершинах хoлмoв на 2-5 м/с выше, чем в oбычных услoвиях.
Атмoсфернoе давление в разных тoчках местнoсти мoжет значительнo oтличаться oт давления на метеoстанции, в зависимoсти oт услoвий рельефа (при пoдъёме на 10 м давление пoнижается примернo на 1 мм рт.ст.).